SCP
0 0 0 0 0 0 0 0 0 0 0 0 0 0 0 0 0 0 0 0 0 0 0 0 0 0 0 0 0 0 0 0 0 0 0 0 0 0 0 0 0 0 0
0 0 0 0 0 0 0 0 0 0 0 0 0 0 0 0 0 0 0 0 0 0 0 0 0 0 0 0 0 0 0 0 0 0 0 0 0 0 0 0 0 0 0
0 0 0 0 0 0 0 0 0 0 0 0 0 0 0 0 0 0 0 0 0 0 0 0 0 0 0 -0 0 -0 0 0 0 0 0 0 0 0 0 0 0 0 0
0 0 0 0 0 0 0 0 0 0 0 0 0 0 0 0 0 0 0 0 0 0 0 0 0 0 0 0 -0 -0 0 0 0 0 0 0 0 0 0 0 0 0 0
0 0 0 0 0 0 0 0 0 0 0 0 0 0 0 0 0 0 0 0 0 0 0 0 0 0 0 0 0 0 0 0 0 0 0 0 0 0 0 0 0 0 0
0 0 0 0 0 0 0 0 0 0 0 0 0 0 0 0 0 0 0 0 0 0 0 0 0 0 0 0 0 0 0 0 0 0 0 0 0 0 0 0 0 0 0
0 0 0 0 0 0 0 0 0 0 0 0 0 0 0 0 0 0 0 0 0 0 0 0 0 0 0 0 0 0 0 0 0 0 0 0 0 0 0 0 0 0 0
0 0 0 0 0 0 0 0 0 0 0 0 0 0 0 0 0 0 0 0 0 0 0 0 0 0 0 0 0 0 0 0 0 0 0 0 0 0 0 0 0 0 0
0 0 0 0 0 0 0 0 0 0 0 0 0 0 0 0 0 0 0 0 0 0 0 0 0 0 0 0 0 0 0 0 0 0 0 0 0 0 0 0 0 0 0
0 0 0 0 0 0 0 0 0 0 0 0 0 0 0 0 0 0 0 0 0 0 0 0 0 0 0 0 0 0 0 0 0 0 0 0 0 0 0 0 0 0 0
0 0 0 0 0 0 0 0 0 0 0 0 0 0 0 0 0 0 0 0 0 0 0 0 0 0 0 0 0 0 0 0 0 0 0 0 0 0 0 0 0 0 0
0 0 0 0 0 0 0 0 0 0 0 0 0 0 0 0 0 0 0 0 0 0 0 0 0 0 0 0 0 0 0 0 0 0 0 0 0 0 0 0 0 0 0
0 0 0 0 0 0 0 0 0 0 0 0 0 0 0 0 0 0 0 0 0 0 0 0 0 0 0 0 0 0 0 0 0 0 0 0 0 0 0 0 0 0 0
0 0 0 0 0 0 0 0 0 0 0 0 0 0 0 0 0 0 0 0 0 0 0 0 0 0 0 0 0 0 0 0 0 0 0 0 0 0 0 0 0 0 0
0 0 0 0 0 0 0 0 0 0 0 0 0 0 0 0 0 0 0 0 0 0 0 0 0 0 0 0 0 0 0 0 0 0 0 0 0 0 0 0 0 0 0
0 0 0 0 0 0 0 0 0 0 0 0 0 0 0 0 0 0 0 0 0 0 0 0 0 0 0 0 0 0 0 0 0 0 0 0 0 0 0 0 0 0 0
0 0 0 0 0 0 0 0 0 0 0 0 0 0 0 0 0 0 0 0 0 0 0 0 0 0 0 0 0 0 0 0 0 0 0 0 0 0 0 0 0 0 0
0 0 0 0 0 0 0 0 0 0 0 0 0 0 0 0 0 0 0 0 0 0 0 0 0 0 0 0 0 0 0 0 0 0 0 0 0 0 0 0 0 0 0
0 0 0 0 0 0 0 0 0 0 0 0 0 0 0 0 0 0 0 0 0 0 0 0 0 0 0 0 0 0 0 0 0 0 0 0 0 0 0 0 0 0 0
0 0 0 0 0 0 0 0 0 0 0 0 0 0 0 0 0 0 0 0 0 0 0 0 0 0 0 0 0 0 0 0 0 0 0 0 0 0 0 0 0 0 0
0 0 0 0 0 0 0 0 0 0 0 0 0 0 0 0 0 0 0 0 0 0 0 0 0 0 0 0 0 0 0 0 0 0 0 0 0 0 0 0 0 0 0
-0 0 0 0 0 0 0 0 0 0 0 0 0 0 0 0 0 0 0 0 0 0 0 0 0 0 0 0 0 0 0 0 0 0 -0 0 0 0 0 0 0 0 0
-0 -0 0 0 0 0 0 0 0 0 0 0 0 0 0 0 0 0 0 -0 -0 -0 0 0 0 0 0 -0 0 0 0 0 0 -0 0 0 0 0 0 0 0 0 0
0 0 0 0 0 0 -0 -0 -0 -0 0 0 0 0 0 0 0 0 0 0 0 0 0 -0 -0 -0 -0 -0 0 0 0 0 0 0 0 0 0 0 0 0 0 0 0
-0 -0 0 0 0 0 0 -0 0 0 0 0 0 0 0 0 -0 -0 -0 -0 -0 -0 -0 -0 -0 -0 -0 -0 0 0 0 0 0 0 -0 -0 0 0 0 0 0 0 0
0 0 0 0 0 0 0 0 0 0 0 0 -0 -0 0 0 -0 -0 0 0 0 -0 -0 0 0 -0 -0 -0 0 0 -0 0 0 0 0 0 -0 0 0 0 0 0 0
Wind_Speed_500mb
47 52 53 55 58 43 39 35 37 32 29 21 13 8 3 1 6 7 6 6 5 6 6 8 14 17 23 26 31 34 37 36 40 41 40 41 44 47 50 50 48 51 52
49 52 51 52 54 40 44 38 42 35 30 21 14 9 6 6 7 10 12 12 11 12 12 13 13 16 17 20 22 24 26 28 31 34 37 41 45 47 47 48 49 49 50
46 49 53 51 46 39 38 44 43 36 31 27 20 16 12 11 15 15 14 14 16 17 17 18 19 21 22 25 27 29 30 32 33 36 40 40 42 47 49 53 55 56 56
43 46 47 49 47 43 43 44 42 41 36 31 27 24 22 19 22 20 19 19 20 21 22 23 23 25 27 29 31 32 33 33 33 33 35 38 42 47 52 51 49 51 52
45 42 45 43 45 44 44 44 43 40 36 33 33 29 28 29 29 28 27 27 28 28 28 29 28 29 30 32 30 30 29 33 35 37 41 43 43 43 42 45 47 45 42
50 49 47 48 44 43 44 41 39 40 37 35 33 32 31 30 34 35 34 35 35 34 34 32 30 28 25 25 24 26 29 35 40 44 45 36 39 46 49 52 53 51 58
50 53 52 48 46 46 38 37 39 39 38 36 35 31 31 34 36 38 39 39 39 36 35 31 27 20 21 24 27 30 35 38 40 44 38 42 46 48 52 53 54 56 64
49 54 55 54 50 46 42 39 35 37 36 34 30 27 21 18 25 21 22 20 17 17 16 17 19 18 23 30 35 36 38 37 32 35 41 46 50 55 56 57 57 57 58
46 49 50 59 53 49 44 41 37 36 34 34 31 23 9 11 8 6 11 10 8 12 12 12 19 26 29 29 27 28 30 25 34 45 51 51 49 48 46 48 49 49 51
48 48 54 58 61 53 48 45 40 37 35 34 33 33 35 33 15 12 8 2 9 13 15 18 26 26 22 24 21 20 20 34 44 52 48 44 43 43 43 43 48 50 52
38 43 55 47 50 47 46 46 43 43 43 40 39 38 36 39 39 33 28 27 19 21 28 29 23 26 24 16 13 20 30 39 51 44 41 40 39 40 43 44 46 49 50
28 49 47 53 55 51 46 43 48 48 42 44 45 47 42 38 35 34 38 42 35 39 37 29 26 23 18 15 17 24 33 42 45 40 39 38 39 39 39 42 46 47 48
13 21 49 60 59 54 47 46 44 45 46 53 50 46 46 43 44 41 44 45 39 35 32 27 22 16 17 16 20 26 36 42 38 38 36 37 38 39 43 43 43 45 48
23 13 20 47 65 56 51 45 43 47 48 57 44 41 43 45 42 45 47 55 48 33 35 26 20 17 17 16 23 28 32 32 34 32 33 35 36 39 38 43 45 46 52
24 21 13 19 32 42 60 52 53 44 33 23 33 33 33 41 32 24 27 29 32 26 30 24 19 22 19 16 22 28 28 29 28 30 34 35 36 37 42 43 46 50 55
29 25 24 21 21 20 24 25 28 25 19 18 17 24 25 27 23 18 11 17 20 22 27 25 20 27 21 16 19 22 21 24 25 28 31 35 37 40 44 47 47 50 56
28 32 30 26 24 30 22 29 27 29 30 32 31 25 24 21 19 21 22 16 16 20 23 22 24 24 19 14 13 15 16 20 23 29 33 37 39 41 43 44 46 55 61
25 27 30 29 26 25 24 24 29 29 25 22 24 27 26 25 19 18 21 15 22 21 21 28 24 22 13 8 7 8 13 17 24 27 32 35 37 39 39 41 53 59 66
24 28 30 32 28 24 23 24 21 25 22 20 20 21 23 23 17 18 18 18 16 16 16 18 16 14 7 4 1 4 10 18 21 25 31 36 36 36 37 45 56 61 66
20 22 22 24 26 26 25 23 18 20 20 19 18 17 19 17 13 10 14 14 13 14 15 15 15 13 11 5 2 1 5 14 17 24 31 32 30 33 38 49 53 56 64
20 25 26 28 26 24 22 19 22 20 18 16 13 14 10 11 14 12 13 13 13 10 11 14 14 12 10 8 8 6 4 6 15 18 22 28 28 38 41 49 52 51 56
17 23 22 21 19 19 17 15 12 8 15 13 15 14 14 16 16 14 12 11 12 13 13 14 15 16 15 14 13 12 9 3 3 14 23 30 30 37 42 51 48 45 51
16 16 20 16 14 13 13 17 21 20 18 16 17 14 18 22 21 17 15 17 18 19 19 19 19 20 20 18 16 17 14 11 13 16 19 29 28 40 43 41 44 47 54
13 13 13 13 12 15 19 19 19 20 14 10 15 14 15 16 19 20 21 19 18 19 22 23 23 21 21 21 19 16 16 18 17 12 11 25 28 35 39 41 43 48 48
8 10 11 15 15 17 17 17 18 16 12 17 19 17 18 18 18 19 19 21 25 24 25 24 23 22 22 20 18 16 14 16 16 16 10 16 28 29 37 36 31 27 32
7 8 8 9 11 11 12 15 14 16 18 17 14 14 14 16 19 25 25 22 23 26 26 25 25 22 21 20 20 19 15 8 5 10 11 12 12 8 24 28 25 21 27
Wind_Direction_500mb
200 196 199 206 201 194 197 193 192 194 189 191 186 170 157 63 13 344 325 319 330 322 338 316 311 317 329 333 327 318 319 322 322 315 320 322 320 321 319 316 316 313 314
199 198 201 205 206 206 205 195 201 198 200 208 208 210 221 269 314 325 310 288 288 292 297 294 283 272 261 271 278 285 292 294 299 303 303 305 306 309 310 313 313 314 314
199 201 200 204 207 202 205 203 205 206 207 216 229 237 254 261 278 297 305 282 284 288 291 297 296 290 284 280 278 281 285 294 298 295 298 302 302 305 309 308 309 311 311
200 204 201 202 205 206 203 203 205 212 213 218 236 246 260 273 273 292 295 298 295 290 293 293 297 295 293 289 289 291 291 299 297 302 301 303 309 311 310 311 313 311 314
202 206 207 206 204 207 205 210 213 215 220 229 237 247 258 272 274 284 289 290 288 287 289 289 290 296 297 293 292 291 293 299 307 310 313 312 316 319 318 317 317 313 317
202 207 205 207 209 210 209 213 219 221 224 232 243 251 257 271 277 285 287 284 283 286 287 287 292 292 293 294 297 300 306 309 311 313 314 319 318 313 310 309 307 305 306
207 211 209 206 208 211 211 217 219 224 229 234 243 253 266 275 283 286 283 282 280 277 281 284 279 282 292 293 296 300 303 310 311 311 311 316 313 310 307 306 305 303 299
212 218 214 209 207 208 210 215 218 224 227 229 234 246 271 274 290 281 280 276 270 275 273 258 262 280 287 290 293 299 309 313 315 314 313 312 311 310 308 307 306 308 313
218 219 224 211 208 209 212 218 221 226 232 234 237 236 242 242 298 291 317 301 280 277 268 266 281 288 290 294 300 308 309 312 323 321 318 319 319 319 319 320 320 323 321
220 221 224 219 210 210 212 216 222 227 234 243 242 241 243 250 267 279 297 285 314 287 254 273 292 296 293 300 311 314 317 323 328 327 328 327 326 324 326 329 326 328 328
220 218 221 223 216 213 215 217 224 226 231 239 247 249 254 256 255 253 269 275 279 267 265 279 284 278 282 297 314 322 328 327 329 329 330 329 329 330 333 332 329 333 331
212 217 217 216 215 215 211 220 220 224 236 242 246 250 253 255 262 263 263 271 275 269 269 277 268 268 288 286 306 314 326 329 329 332 334 334 336 336 336 337 341 334 336
198 190 203 209 215 214 216 222 228 236 238 244 246 247 252 255 262 267 270 274 267 268 261 254 255 258 272 279 299 318 330 329 332 335 340 346 346 347 347 344 342 344 346
214 210 179 188 211 218 227 234 245 239 257 245 245 253 263 260 263 276 274 273 263 263 252 241 243 269 271 288 304 316 329 332 337 344 356 356 354 350 350 356 353 349 347
217 218 209 166 206 224 231 238 240 236 237 237 237 242 254 249 259 272 263 269 274 257 229 221 244 270 275 291 307 322 337 339 349 360 358 358 357 359 4 359 354 352 348
222 222 216 211 205 209 195 216 207 211 223 244 239 244 244 251 260 242 263 260 249 234 230 215 244 263 271 291 312 329 340 347 5 2 360 5 7 11 8 2 354 352 353
216 212 212 213 220 219 210 210 218 216 222 229 234 224 225 225 227 221 193 209 191 193 213 214 237 263 271 306 325 335 354 4 10 8 14 13 16 13 8 1 359 8 6
221 212 207 198 198 199 188 196 211 217 221 224 227 225 224 215 214 191 211 221 201 217 253 260 240 241 251 282 304 348 6 15 19 16 23 21 20 14 10 7 21 22 24
188 192 196 195 193 191 211 211 209 213 211 217 205 214 216 219 229 233 223 218 220 253 258 256 241 233 243 242 321 337 24 25 24 27 29 26 17 16 18 31 38 35 36
158 165 170 179 183 189 192 190 196 200 203 205 204 187 197 212 220 218 210 211 235 249 250 235 213 194 196 154 125 115 44 41 35 35 32 30 26 31 34 48 46 40 37
142 149 153 170 174 202 188 179 188 195 199 190 178 189 207 216 229 216 209 225 239 231 198 180 173 171 153 139 108 124 158 73 44 46 44 46 43 48 47 52 47 44 38
134 143 152 156 152 157 159 184 185 201 181 197 209 210 202 195 211 212 207 205 199 178 173 166 158 148 131 129 131 109 110 122 89 60 54 53 47 55 58 56 48 50 47
116 127 140 146 158 150 174 187 177 177 190 195 189 190 201 201 206 207 192 179 172 164 156 145 144 140 137 124 125 107 93 97 107 98 64 64 59 65 65 66 56 66 65
137 141 148 147 160 156 174 182 193 192 185 217 220 209 212 214 203 188 174 175 167 158 149 144 139 137 125 112 113 124 106 86 86 106 98 75 71 75 77 77 78 84 75
126 156 169 187 183 184 195 217 215 202 209 227 223 220 196 183 186 180 169 172 161 157 147 139 134 127 114 110 106 104 110 92 91 90 109 117 89 90 91 87 88 75 71
162 155 162 201 204 202 215 221 215 212 222 215 211 201 193 178 183 181 161 166 165 156 153 147 140 132 128 116 100 89 88 113 127 82 89 93 189 129 88 97 91 72 67
Wind_Speed_850mb
47 52 53 55 58 43 39 35 37 32 29 21 13 8 3 1 6 7 6 6 5 6 6 8 14 17 23 26 31 34 37 36 40 41 40 41 44 47 50 50 48 51 52
49 52 51 52 54 40 44 38 42 35 30 21 14 9 6 6 7 10 12 12 11 12 12 13 13 16 17 20 22 24 26 28 31 34 37 41 45 47 47 48 49 49 50
46 49 53 51 46 39 38 44 43 36 31 27 20 16 12 11 15 15 14 14 16 17 17 18 19 21 22 25 27 29 30 32 33 36 40 40 42 47 49 53 55 56 56
43 46 47 49 47 43 43 44 42 41 36 31 27 24 22 19 22 20 19 19 20 21 22 23 23 25 27 29 31 32 33 33 33 33 35 38 42 47 52 51 49 51 52
45 42 45 43 45 44 44 44 43 40 36 33 33 29 28 29 29 28 27 27 28 28 28 29 28 29 30 32 30 30 29 33 35 37 41 43 43 43 42 45 47 45 42
50 49 47 48 44 43 44 41 39 40 37 35 33 32 31 30 34 35 34 35 35 34 34 32 30 28 25 25 24 26 29 35 40 44 45 36 39 46 49 52 53 51 58
50 53 52 48 46 46 38 37 39 39 38 36 35 31 31 34 36 38 39 39 39 36 35 31 27 20 21 24 27 30 35 38 40 44 38 42 46 48 52 53 54 56 64
49 54 55 54 50 46 42 39 35 37 36 34 30 27 21 18 25 21 22 20 17 17 16 17 19 18 23 30 35 36 38 37 32 35 41 46 50 55 56 57 57 57 58
46 49 50 59 53 49 44 41 37 36 34 34 31 23 9 11 8 6 11 10 8 12 12 12 19 26 29 29 27 28 30 25 34 45 51 51 49 48 46 48 49 49 51
48 48 54 58 61 53 48 45 40 37 35 34 33 33 35 33 15 12 8 2 9 13 15 18 26 26 22 24 21 20 20 34 44 52 48 44 43 43 43 43 48 50 52
38 43 55 47 50 47 46 46 43 43 43 40 39 38 36 39 39 33 28 27 19 21 28 29 23 26 24 16 13 20 30 39 51 44 41 40 39 40 43 44 46 49 50
28 49 47 53 55 51 46 43 48 48 42 44 45 47 42 38 35 34 38 42 35 39 37 29 26 23 18 15 17 24 33 42 45 40 39 38 39 39 39 42 46 47 48
13 21 49 60 59 54 47 46 44 45 46 53 50 46 46 43 44 41 44 45 39 35 32 27 22 16 17 16 20 26 36 42 38 38 36 37 38 39 43 43 43 45 48
23 13 20 47 65 56 51 45 43 47 48 57 44 41 43 45 42 45 47 55 48 33 35 26 20 17 17 16 23 28 32 32 34 32 33 35 36 39 38 43 45 46 52
24 21 13 19 32 42 60 52 53 44 33 23 33 33 33 41 32 24 27 29 32 26 30 24 19 22 19 16 22 28 28 29 28 30 34 35 36 37 42 43 46 50 55
29 25 24 21 21 20 24 25 28 25 19 18 17 24 25 27 23 18 11 17 20 22 27 25 20 27 21 16 19 22 21 24 25 28 31 35 37 40 44 47 47 50 56
28 32 30 26 24 30 22 29 27 29 30 32 31 25 24 21 19 21 22 16 16 20 23 22 24 24 19 14 13 15 16 20 23 29 33 37 39 41 43 44 46 55 61
25 27 30 29 26 25 24 24 29 29 25 22 24 27 26 25 19 18 21 15 22 21 21 28 24 22 13 8 7 8 13 17 24 27 32 35 37 39 39 41 53 59 66
24 28 30 32 28 24 23 24 21 25 22 20 20 21 23 23 17 18 18 18 16 16 16 18 16 14 7 4 1 4 10 18 21 25 31 36 36 36 37 45 56 61 66
20 22 22 24 26 26 25 23 18 20 20 19 18 17 19 17 13 10 14 14 13 14 15 15 15 13 11 5 2 1 5 14 17 24 31 32 30 33 38 49 53 56 64
20 25 26 28 26 24 22 19 22 20 18 16 13 14 10 11 14 12 13 13 13 10 11 14 14 12 10 8 8 6 4 6 15 18 22 28 28 38 41 49 52 51 56
17 23 22 21 19 19 17 15 12 8 15 13 15 14 14 16 16 14 12 11 12 13 13 14 15 16 15 14 13 12 9 3 3 14 23 30 30 37 42 51 48 45 51
16 16 20 16 14 13 13 17 21 20 18 16 17 14 18 22 21 17 15 17 18 19 19 19 19 20 20 18 16 17 14 11 13 16 19 29 28 40 43 41 44 47 54
13 13 13 13 12 15 19 19 19 20 14 10 15 14 15 16 19 20 21 19 18 19 22 23 23 21 21 21 19 16 16 18 17 12 11 25 28 35 39 41 43 48 48
8 10 11 15 15 17 17 17 18 16 12 17 19 17 18 18 18 19 19 21 25 24 25 24 23 22 22 20 18 16 14 16 16 16 10 16 28 29 37 36 31 27 32
7 8 8 9 11 11 12 15 14 16 18 17 14 14 14 16 19 25 25 22 23 26 26 25 25 22 21 20 20 19 15 8 5 10 11 12 12 8 24 28 25 21 27
Wind_Direction_850mb
200 196 199 206 201 194 197 193 192 194 189 191 186 170 157 63 13 344 325 319 330 322 338 316 311 317 329 333 327 318 319 322 322 315 320 322 320 321 319 316 316 313 314
199 198 201 205 206 206 205 195 201 198 200 208 208 210 221 269 314 325 310 288 288 292 297 294 283 272 261 271 278 285 292 294 299 303 303 305 306 309 310 313 313 314 314
199 201 200 204 207 202 205 203 205 206 207 216 229 237 254 261 278 297 305 282 284 288 291 297 296 290 284 280 278 281 285 294 298 295 298 302 302 305 309 308 309 311 311
200 204 201 202 205 206 203 203 205 212 213 218 236 246 260 273 273 292 295 298 295 290 293 293 297 295 293 289 289 291 291 299 297 302 301 303 309 311 310 311 313 311 314
202 206 207 206 204 207 205 210 213 215 220 229 237 247 258 272 274 284 289 290 288 287 289 289 290 296 297 293 292 291 293 299 307 310 313 312 316 319 318 317 317 313 317
202 207 205 207 209 210 209 213 219 221 224 232 243 251 257 271 277 285 287 284 283 286 287 287 292 292 293 294 297 300 306 309 311 313 314 319 318 313 310 309 307 305 306
207 211 209 206 208 211 211 217 219 224 229 234 243 253 266 275 283 286 283 282 280 277 281 284 279 282 292 293 296 300 303 310 311 311 311 316 313 310 307 306 305 303 299
212 218 214 209 207 208 210 215 218 224 227 229 234 246 271 274 290 281 280 276 270 275 273 258 262 280 287 290 293 299 309 313 315 314 313 312 311 310 308 307 306 308 313
218 219 224 211 208 209 212 218 221 226 232 234 237 236 242 242 298 291 317 301 280 277 268 266 281 288 290 294 300 308 309 312 323 321 318 319 319 319 319 320 320 323 321
220 221 224 219 210 210 212 216 222 227 234 243 242 241 243 250 267 279 297 285 314 287 254 273 292 296 293 300 311 314 317 323 328 327 328 327 326 324 326 329 326 328 328
220 218 221 223 216 213 215 217 224 226 231 239 247 249 254 256 255 253 269 275 279 267 265 279 284 278 282 297 314 322 328 327 329 329 330 329 329 330 333 332 329 333 331
212 217 217 216 215 215 211 220 220 224 236 242 246 250 253 255 262 263 263 271 275 269 269 277 268 268 288 286 306 314 326 329 329 332 334 334 336 336 336 337 341 334 336
198 190 203 209 215 214 216 222 228 236 238 244 246 247 252 255 262 267 270 274 267 268 261 254 255 258 272 279 299 318 330 329 332 335 340 346 346 347 347 344 342 344 346
214 210 179 188 211 218 227 234 245 239 257 245 245 253 263 260 263 276 274 273 263 263 252 241 243 269 271 288 304 316 329 332 337 344 356 356 354 350 350 356 353 349 347
217 218 209 166 206 224 231 238 240 236 237 237 237 242 254 249 259 272 263 269 274 257 229 221 244 270 275 291 307 322 337 339 349 360 358 358 357 359 4 359 354 352 348
222 222 216 211 205 209 195 216 207 211 223 244 239 244 244 251 260 242 263 260 249 234 230 215 244 263 271 291 312 329 340 347 5 2 360 5 7 11 8 2 354 352 353
216 212 212 213 220 219 210 210 218 216 222 229 234 224 225 225 227 221 193 209 191 193 213 214 237 263 271 306 325 335 354 4 10 8 14 13 16 13 8 1 359 8 6
221 212 207 198 198 199 188 196 211 217 221 224 227 225 224 215 214 191 211 221 201 217 253 260 240 241 251 282 304 348 6 15 19 16 23 21 20 14 10 7 21 22 24
188 192 196 195 193 191 211 211 209 213 211 217 205 214 216 219 229 233 223 218 220 253 258 256 241 233 243 242 321 337 24 25 24 27 29 26 17 16 18 31 38 35 36
158 165 170 179 183 189 192 190 196 200 203 205 204 187 197 212 220 218 210 211 235 249 250 235 213 194 196 154 125 115 44 41 35 35 32 30 26 31 34 48 46 40 37
142 149 153 170 174 202 188 179 188 195 199 190 178 189 207 216 229 216 209 225 239 231 198 180 173 171 153 139 108 124 158 73 44 46 44 46 43 48 47 52 47 44 38
134 143 152 156 152 157 159 184 185 201 181 197 209 210 202 195 211 212 207 205 199 178 173 166 158 148 131 129 131 109 110 122 89 60 54 53 47 55 58 56 48 50 47
116 127 140 146 158 150 174 187 177 177 190 195 189 190 201 201 206 207 192 179 172 164 156 145 144 140 137 124 125 107 93 97 107 98 64 64 59 65 65 66 56 66 65
137 141 148 147 160 156 174 182 193 192 185 217 220 209 212 214 203 188 174 175 167 158 149 144 139 137 125 112 113 124 106 86 86 106 98 75 71 75 77 77 78 84 75
126 156 169 187 183 184 195 217 215 202 209 227 223 220 196 183 186 180 169 172 161 157 147 139 134 127 114 110 106 104 110 92 91 90 109 117 89 90 91 87 88 75 71
162 155 162 201 204 202 215 221 215 212 222 215 211 201 193 178 183 181 161 166 165 156 153 147 140 132 128 116 100 89 88 113 127 82 89 93 189 129 88 97 91 72 67